Tracking 17141 objects as of 5-July-2015
HD Live streaming from Space Station

COSMOS 2251 DEB

Track COSMOS 2251 DEB now!
10-day predictions
COSMOS 2251 DEB is classified as:


NORAD ID: 34781
Int'l Code: 1993-036AAJ
Perigee: 563.3 km
Apogee: 623.2 km
Inclination: 74.0 °
Period: 96.4 minutes
Semi major axis: 6964 km
RCS: 0.0067 m2 (small)
Launch date: June 16, 1993
Source: Commonwealth of Independent States (former USSR) (CIS)

Note: This is SATELLITE DEBRIS
Your satellite tracking list
Your tracking list is empty





NASA's NSSDC Master Catalog

Two Line Element Set (TLE):
1 34781U 93036AAJ 15186.23622310  .00036395  00000-0  33556-2 0  9994
2 34781 074.0460 276.8921 0042963 359.1632 030.5868 14.93795334333900

Source of the keplerian elements: AFSPC

N2YO: 398